Regional Weather Roundup
Issued by NWS Tiyan, Guam

Home | Current Version | Previous Version | Text Only | Print | Product List | Glossary On
Versions: 1 2 3 4 5 6 7 8 9 10 11 12 13 14 15 16 17 18 19 20 21 22 23 24 25 26 27 28 29 30 31 32 33 34 35 36 37 38 39 40 41 42 43 44 45 46 47 48 49 50
000
ASGM40 PGUM 252312
RWRGUM
WEATHER ROUNDUP FOR THE MARIANAS
NATIONAL WEATHER SERVICE TIYAN GU
900 AM CHST WED APR 26 2017

GUZ001>004-260000-
MARIANA ISLANDS-

CITY           SKY/WX    TMP DP  RH WIND       PRES   REMARKS
GUAM AIRPORT   LGT RAIN  79  77  94 E10       29.96R
ANDERSEN AFB   LGT RAIN  75  75 100 E12       29.96R
ROTA AIRPORT   CLOUDY    77  73  88 SE5       29.95R
TINIAN AP      PTSUNNY   81  75  83 E9        29.94R
SAIPAN AP      CLOUDY    81  75  83 E14       29.95R

$$




USA.gov is the U.S. government's official web portal to all federal, state and local government web resources and services.